Theta_e
298 298 298 298 298 298 298 296 294 295 295 295 295 296 296 296 298 298 297 304 305 305 306 308 309 310 311 312 313 315 317 320 327 335 336 334 337 337 337 336 335 334 334
298 297 296 297 297 298 297 294 293 294 293 294 295 296 296 296 296 297 298 298 305 305 305 307 308 309 311 312 313 313 316 319 324 335 335 334 336 336 335 334 334 334 334
298 297 295 296 297 297 296 293 294 294 293 294 293 294 295 295 296 297 298 299 300 305 306 306 307 307 309 311 311 313 315 318 324 333 333 336 336 334 334 333 333 333 333
298 296 295 294 297 296 295 294 294 292 292 291 291 292 293 294 295 296 298 298 298 300 303 307 307 307 307 309 311 312 314 317 324 335 332 334 333 334 333 333 333 333 333
299 296 295 294 296 295 295 294 292 291 290 290 290 290 291 292 293 295 295 297 299 299 299 304 307 307 307 308 309 311 314 318 325 333 331 329 335 334 333 332 332 332 332
299 296 295 294 294 294 293 293 290 290 289 289 290 290 289 291 292 293 295 298 298 299 300 300 301 303 307 308 308 310 313 318 325 332 332 333 335 333 332 332 332 332 332
298 296 294 294 293 293 293 291 291 289 288 289 287 287 288 290 290 292 294 296 297 299 300 301 302 301 304 309 309 309 313 317 325 330 332 332 332 332 332 332 332 332 332
298 296 295 293 293 292 292 292 290 288 288 289 285 285 283 285 290 294 294 297 297 298 299 302 300 302 302 304 305 309 310 315 323 329 330 331 331 332 332 331 332 332 331
297 296 295 293 292 292 291 291 291 289 286 288 289 285 282 281 284 292 292 295 298 297 296 301 300 302 303 304 308 308 309 312 317 326 329 331 332 332 332 332 332 331 330
296 296 294 293 292 292 291 291 291 288 288 285 286 289 289 286 282 280 289 290 292 295 298 299 299 301 302 304 309 309 308 309 314 329 331 333 333 332 332 332 331 331 330
296 295 294 292 291 291 291 291 290 287 288 287 286 286 287 288 288 284 281 284 289 293 296 297 299 298 303 304 305 309 308 307 308 316 329 332 333 332 331 332 331 331 330
293 293 293 292 292 291 291 290 290 289 289 288 287 287 286 285 283 284 284 284 284 288 292 295 299 299 302 302 308 309 307 306 305 309 323 328 330 331 331 331 331 331 331
291 291 292 291 291 291 290 291 290 289 288 287 287 287 287 287 287 286 286 285 284 287 289 293 296 299 301 303 305 308 307 304 304 306 312 324 326 327 328 329 331 331 330
291 292 291 291 291 291 291 289 287 287 287 287 286 286 285 286 287 287 286 284 282 284 286 287 293 296 300 301 306 308 307 304 304 305 310 320 322 322 323 325 326 327 327
292 291 291 290 290 290 288 288 286 285 286 286 284 285 285 286 286 286 287 287 284 281 283 287 289 296 299 303 306 307 308 306 304 305 309 316 318 319 319 320 321 322 323
292 291 290 289 288 288 288 286 285 285 285 285 286 285 285 285 286 286 286 288 287 285 284 291 291 295 300 304 307 307 309 307 304 304 306 312 313 315 315 315 316 317 318
291 290 288 287 288 285 286 285 285 285 284 285 285 285 285 286 285 285 287 288 287 287 284 288 293 296 300 303 308 308 311 307 307 305 306 308 309 310 311 311 311 312 314
291 289 287 287 286 285 285 285 285 285 285 284 284 285 284 286 285 285 286 286 287 288 287 286 289 293 300 306 308 308 313 312 313 307 309 307 307 307 307 307 307 308 309
290 288 287 286 285 284 285 285 285 285 284 284 284 284 284 285 284 285 286 286 288 289 289 288 290 300 305 307 307 312 314 315 317 310 308 306 306 306 306 306 306 306 306
290 288 288 286 284 284 285 285 285 284 284 284 285 285 286 287 286 286 288 288 289 289 289 290 290 292 305 306 310 312 311 318 314 319 315 311 308 305 305 304 305 305 305
290 289 286 286 284 285 285 285 285 284 283 284 285 286 288 289 290 290 289 289 290 289 290 290 291 294 303 305 312 315 315 315 318 318 313 314 315 315 310 307 307 305 304
290 288 285 285 283 284 287 287 285 284 284 284 284 285 286 290 292 292 292 292 292 291 291 292 294 295 303 312 315 315 315 314 309 318 315 314 315 309 316 317 305 302 303
289 287 285 284 284 284 287 287 286 284 284 284 285 285 286 288 289 290 291 291 291 292 290 296 296 303 313 315 315 315 314 313 311 306 304 297 299 294 296 297 298 301 301
289 287 287 284 284 285 286 286 285 285 285 285 285 285 285 286 289 291 293 293 292 291 294 297 311 315 316 317 317 315 311 306 305 304 304 293 295 292 295 294 294 295 296
289 288 287 285 284 284 287 286 285 285 285 285 286 285 285 286 290 293 293 292 291 294 296 296 297 300 301 303 309 311 307 304 299 298 300 296 293 290 290 290 294 293 292
288 288 286 285 285 284 287 287 286 285 284 284 286 286 286 286 288 289 290 291 289 290 295 299 302 302 305 301 300 310 307 300 298 298 296 294 291 291 287 288 289 291 293
Wind_Speed
5 5 5 6 4 4 4 6 7 6 7 8 6 7 7 7 6 4 3 14 13 11 12 12 11 12 11 11 9 8 7 7 11 8 23 19 15 19 18 18 19 20 22
4 4 6 6 5 4 5 4 6 6 5 6 8 7 7 7 6 7 6 5 14 12 12 13 12 12 12 11 11 9 8 7 11 13 25 22 21 21 20 18 21 22 22
4 4 6 6 5 4 5 3 6 5 5 5 8 8 8 9 7 6 5 4 5 12 14 15 13 12 12 12 11 10 9 9 10 15 30 23 23 24 25 21 22 23 21
5 4 5 7 5 4 4 3 4 4 5 7 8 8 9 9 10 9 6 5 4 5 7 14 14 11 11 13 11 11 10 10 11 25 32 23 22 22 24 23 23 22 21
4 4 4 6 6 5 5 3 4 7 8 8 9 9 8 10 10 9 11 8 7 6 3 9 16 13 12 12 12 11 10 11 11 27 26 27 22 24 24 23 24 22 22
3 3 5 6 5 7 5 4 4 5 6 8 9 10 9 10 11 9 10 10 6 6 5 6 3 6 15 14 12 11 11 11 7 30 25 22 22 24 24 25 24 21 22
2 3 4 4 5 7 6 3 2 4 5 7 8 8 8 12 13 11 9 8 6 6 6 5 4 3 5 16 12 12 13 12 10 30 28 24 23 22 22 26 25 23 23
5 4 4 4 5 6 7 4 3 3 5 6 5 6 6 8 5 3 7 8 8 4 1 6 5 6 5 4 7 13 14 13 13 19 26 25 25 23 22 26 25 25 24
5 5 5 4 5 5 6 5 5 6 5 6 7 4 4 4 7 4 8 4 4 0 4 4 5 7 5 3 7 10 13 11 16 16 30 26 29 26 24 24 26 26 25
6 5 5 5 5 6 8 4 3 3 3 7 6 7 8 6 2 4 4 7 6 4 5 2 4 4 5 4 5 12 12 8 9 31 30 30 30 28 26 25 26 27 26
7 6 6 5 6 6 7 5 5 5 6 7 7 7 8 7 8 7 8 6 5 4 4 4 4 3 5 4 4 6 12 11 7 13 26 24 26 30 27 26 26 27 26
6 7 7 7 7 8 7 6 8 9 8 9 8 9 8 5 6 6 7 6 5 7 6 4 4 5 5 5 6 11 13 14 9 9 16 25 28 29 28 27 27 26 26
7 7 9 8 8 8 9 8 8 8 9 9 10 9 7 7 7 6 5 4 4 5 4 4 4 4 5 3 5 11 16 15 14 13 11 21 27 29 28 28 28 27 26
8 10 9 9 9 9 8 9 9 8 9 8 11 9 7 7 6 6 7 6 4 5 3 6 4 4 4 4 6 16 10 16 14 14 13 26 27 28 27 27 27 26 25
9 10 9 10 12 10 12 12 7 10 8 8 8 9 8 8 8 8 7 7 6 6 6 6 5 6 6 7 7 10 10 19 14 12 16 24 25 27 25 24 23 23 23
10 10 8 12 13 13 11 11 7 7 8 7 8 10 10 9 10 8 8 8 8 6 6 4 8 6 7 7 11 11 11 17 19 13 11 25 25 26 24 23 20 20 19
10 10 14 15 10 13 11 9 9 9 10 10 10 11 13 12 9 10 9 9 9 8 9 7 2 8 8 6 9 8 10 11 9 13 17 26 24 25 24 23 20 20 19
10 16 15 14 13 12 12 11 10 8 8 7 7 8 9 9 13 13 10 11 10 10 9 10 4 4 10 9 10 10 9 10 9 16 26 27 24 24 24 23 20 20 19
9 11 13 12 15 14 13 12 11 9 9 8 9 8 8 13 14 12 12 11 9 9 7 5 5 5 7 8 10 10 13 12 11 23 27 28 24 24 25 22 20 20 18
10 14 13 10 14 13 14 13 14 11 9 8 9 8 3 10 14 13 13 12 10 8 8 6 6 7 8 10 11 12 13 11 14 16 19 20 23 22 23 21 20 20 18
8 13 18 12 15 12 13 15 13 12 11 10 7 7 4 12 17 13 9 11 12 10 8 8 9 5 7 11 14 16 16 14 13 14 13 12 13 11 12 16 16 18 17
14 14 16 15 17 12 27 25 18 11 12 11 9 9 7 8 13 15 14 14 13 13 12 9 8 8 15 13 16 18 16 15 12 12 15 11 10 8 7 8 13 16 16
12 12 13 18 16 18 27 25 20 9 10 13 14 11 9 7 5 7 12 16 17 16 12 13 16 12 17 20 18 21 20 16 12 14 19 12 10 12 10 12 15 12 15
9 11 12 16 14 17 26 24 18 10 12 16 18 12 9 8 5 6 15 17 14 10 5 2 12 17 21 21 18 19 20 19 17 15 15 8 8 11 10 13 29 21 17
14 13 15 14 18 16 30 27 14 11 13 17 16 21 15 13 14 21 15 20 13 10 20 37 30 30 28 25 24 19 17 17 14 8 7 7 2 10 10 11 11 27 28
15 12 14 15 20 17 30 32 23 12 18 14 18 22 32 24 33 26 19 18 21 13 20 23 20 25 24 24 25 18 15 15 13 11 4 7 1 4 6 5 10 10 10
Wind_Direction
329 343 327 317 322 324 4 8 342 323 322 305 317 292 285 267 287 300 265 284 282 270 271 273 268 268 266 263 263 270 283 306 313 249 159 161 163 148 142 146 133 131 126
341 329 322 312 309 343 16 360 315 300 298 293 298 309 311 307 279 275 275 268 285 279 266 265 265 262 264 261 260 262 274 292 297 194 157 169 163 147 145 147 132 129 134
325 345 310 311 307 8 335 325 276 281 301 328 316 319 317 299 294 281 284 258 262 276 246 244 251 253 255 257 256 255 263 282 292 206 160 168 155 148 145 146 137 133 136
311 348 318 310 322 327 294 277 303 323 335 335 323 317 311 302 291 286 264 266 258 270 293 223 230 235 247 253 252 247 250 269 282 176 157 164 151 148 140 142 137 134 134
329 334 306 306 314 307 296 308 4 359 340 329 311 307 310 308 300 298 298 282 240 233 260 296 213 220 234 243 246 247 240 247 262 167 159 156 159 150 142 147 132 139 138
292 309 309 299 326 301 303 19 3 338 304 304 311 307 290 279 277 269 267 265 246 234 211 227 224 208 225 231 236 238 233 238 268 157 159 166 157 152 148 141 134 139 141
309 302 282 303 305 304 319 350 3 301 299 308 306 297 295 278 268 257 252 258 255 219 192 206 221 226 223 227 232 225 228 225 225 160 159 159 156 156 156 142 138 144 141
312 292 303 286 297 302 299 311 281 269 271 273 279 294 293 319 2 301 232 237 229 215 270 192 207 221 238 182 201 216 223 224 219 193 165 155 156 156 154 139 142 142 139
312 303 295 290 288 284 289 273 262 263 257 265 263 248 288 279 358 322 337 336 336 151 233 256 208 232 243 243 192 189 213 232 242 216 168 169 157 150 148 142 144 140 138
327 322 307 303 314 299 290 290 304 268 266 270 269 249 236 256 243 307 337 343 334 326 276 243 227 216 211 231 234 170 196 199 219 175 174 166 151 151 145 146 144 139 142
315 327 328 341 308 294 289 298 277 249 249 251 257 252 243 241 238 236 274 296 315 299 244 236 246 251 240 210 205 157 171 160 203 215 165 164 154 146 149 147 142 140 142
334 332 339 318 307 297 302 308 285 263 247 247 243 243 237 222 210 216 236 256 267 291 300 282 262 206 224 202 208 160 160 150 180 223 182 168 156 149 148 146 141 144 142
330 327 317 324 310 339 326 309 297 287 271 255 247 239 229 228 230 235 233 233 237 270 274 279 279 265 219 209 184 154 164 146 167 202 227 177 157 148 149 148 145 147 148
326 314 331 316 341 336 309 302 279 273 269 256 252 240 227 224 221 222 219 207 234 240 275 268 294 264 260 212 186 151 155 148 173 204 210 171 153 146 146 146 146 148 146
320 329 316 352 349 319 303 297 289 288 261 247 240 235 229 222 220 215 217 214 200 220 231 236 239 238 239 204 180 151 144 162 184 196 207 150 146 141 140 142 140 144 142
330 323 357 342 312 314 309 302 285 275 276 258 242 230 226 220 216 212 206 214 211 221 245 233 206 248 217 206 156 142 143 155 189 189 173 139 140 138 135 132 135 136 133
331 334 14 334 332 328 315 302 290 276 262 259 250 232 224 209 203 206 202 205 206 203 232 266 262 220 242 190 147 137 144 160 184 162 165 130 134 132 131 127 130 130 126
337 20 351 336 340 327 315 309 304 301 290 284 266 240 227 208 202 202 197 202 197 203 216 241 285 273 201 161 151 152 161 167 154 157 144 130 128 131 130 127 130 125 123
3 15 341 341 342 326 323 337 341 336 326 304 288 272 239 198 193 190 193 194 192 200 208 222 247 250 158 140 156 167 160 154 151 155 133 124 129 130 126 126 125 123 122
15 345 1 19 341 331 342 347 352 336 329 325 319 312 169 160 172 179 185 184 185 187 195 211 236 272 155 168 167 167 153 147 141 143 136 134 131 124 120 121 122 127 129
356 349 20 360 348 346 1 2 347 341 348 346 341 348 91 156 168 173 174 175 178 180 190 202 223 238 180 178 181 149 160 135 125 127 115 119 121 121 119 118 123 127 128
20 15 22 358 357 6 8 358 358 350 1 358 11 11 31 74 159 176 188 193 187 183 194 202 209 225 180 185 128 143 144 140 129 133 115 97 90 68 91 126 119 127 127
20 9 25 8 9 11 10 0 359 356 15 25 26 18 24 28 77 127 126 171 201 210 215 217 227 182 163 136 131 128 131 119 103 103 97 70 77 66 50 41 56 109 126
20 25 32 13 9 12 12 7 4 13 24 35 26 21 34 25 42 158 112 98 92 73 99 130 183 127 115 118 118 118 106 100 90 82 100 86 74 69 62 58 48 58 64
9 24 36 13 10 12 15 17 23 26 42 39 37 36 30 46 65 69 89 89 84 133 118 76 68 78 83 94 108 105 104 103 96 79 64 93 70 88 56 45 44 53 58
14 17 37 27 15 15 18 20 26 21 35 35 40 36 36 49 51 48 53 63 60 47 71 69 68 66 76 71 82 93 100 101 114 101 8 92 119 113 76 22 34 37 51